TimeCST,TemperatureF,Dew PointF,Humidity,Sea Level PressureIn,VisibilityMPH,Wind Direction,Wind SpeedMPH,Gust SpeedMPH,PrecipitationIn,Events,Conditions,WindDirDegrees,DateUTC
12:15 AM,23.0,19.4,86,30.03,0.8,East,6.9,-,0.01,Snow,Snow,100,2013-02-22 06:15:00
12:35 AM,23.0,21.2,93,30.03,1.0,East,5.8,-,0.01,Snow,Snow,90,2013-02-22 06:35:00
12:56 AM,23.0,21.2,93,30.01,1.0,NE,5.8,-,N/A,Snow,Light Snow,50,2013-02-22 06:56:00
1:15 AM,23.0,21.2,93,29.99,1.2,ENE,9.2,-,N/A,Snow,Light Snow,70,2013-02-22 07:15:00
1:35 AM,23.0,21.2,93,29.97,1.0,East,9.2,-,N/A,Snow,Snow,90,2013-02-22 07:35:00
1:56 AM,23.0,21.2,93,29.96,0.8,East,8.1,-,N/A,Snow,Snow,100,2013-02-22 07:56:00
2:15 AM,23.0,21.2,93,29.96,0.8,East,8.1,-,N/A,Snow,Snow,100,2013-02-22 08:15:00
2:35 AM,23.0,21.2,93,29.94,1.5,East,9.2,-,N/A,Snow,Light Snow,80,2013-02-22 08:35:00
2:56 AM,23.0,21.2,93,29.94,1.5,ESE,6.9,-,N/A,Snow,Light Snow,110,2013-02-22 08:56:00
3:15 AM,23.0,21.2,93,29.93,1.2,East,5.8,-,N/A,Snow,Light Snow,100,2013-02-22 09:15:00
3:35 AM,23.0,19.4,86,29.92,2.5,East,8.1,-,N/A,Snow,Light Snow,100,2013-02-22 09:35:00
3:56 AM,23.0,19.4,86,29.92,1.8,East,6.9,-,N/A,Snow,Light Snow,90,2013-02-22 09:56:00
4:15 AM,23.0,19.4,86,29.91,2.5,East,5.8,-,0.01,Snow,Light Snow,90,2013-02-22 10:15:00
4:35 AM,23.0,19.4,86,29.90,4.0,ESE,6.9,-,0.02,Snow,Light Snow,110,2013-02-22 10:35:00
4:55 AM,23.0,19.4,86,29.90,2.0,East,4.6,-,0.03,Snow,Light Snow,90,2013-02-22 10:55:00
5:15 AM,23.0,19.4,86,29.90,2.5,East,4.6,-,0.01,Snow,Light Snow,90,2013-02-22 11:15:00
5:36 AM,23.0,19.4,86,29.89,5.0,East,8.1,-,0.01,Snow,Light Snow,100,2013-02-22 11:36:00
5:55 AM,23.0,19.4,86,29.89,10.0,East,5.8,-,0.02,,Overcast,100,2013-02-22 11:55:00
6:15 AM,23.0,17.6,80,29.89,10.0,East,5.8,-,N/A,,Overcast,80,2013-02-22 12:15:00
6:36 AM,23.0,17.6,80,29.88,10.0,East,5.8,-,0.01,,Overcast,80,2013-02-22 12:36:00
6:55 AM,23.0,17.6,80,29.88,10.0,East,6.9,-,0.01,,Overcast,90,2013-02-22 12:55:00
7:16 AM,23.0,17.6,80,29.88,7.0,ENE,4.6,-,N/A,Snow,Light Snow,70,2013-02-22 13:16:00
7:36 AM,23.0,17.6,80,29.89,5.0,East,4.6,-,0.01,Snow,Light Snow,80,2013-02-22 13:36:00
7:55 AM,23.0,17.6,80,29.88,1.8,East,3.5,-,0.01,Snow,Light Snow,90,2013-02-22 13:55:00
8:16 AM,23.0,17.6,80,29.88,4.0,East,3.5,-,N/A,Snow,Light Snow,80,2013-02-22 14:16:00
8:36 AM,23.0,19.4,86,29.88,1.8,ENE,5.8,-,N/A,Snow,Light Snow,60,2013-02-22 14:36:00
8:55 AM,23.0,19.4,86,29.88,1.0,East,3.5,-,0.01,Snow,Light Snow,90,2013-02-22 14:55:00
9:16 AM,23.0,19.4,86,29.87,2.0,ENE,3.5,-,0.01,Snow,Light Snow,70,2013-02-22 15:16:00
9:36 AM,23.0,19.4,86,29.87,2.0,Calm,Calm,-,0.02,Snow,Light Snow,0,2013-02-22 15:36:00
9:55 AM,24.8,19.4,80,29.87,3.0,Calm,Calm,-,0.02,Snow,Light Snow,0,2013-02-22 15:55:00
10:15 AM,26.6,19.4,74,29.87,4.0,Calm,Calm,-,0.01,Snow,Light Snow,0,2013-02-22 16:15:00
10:36 AM,26.6,19.4,74,29.87,3.0,East,4.6,-,0.02,Snow,Light Snow,80,2013-02-22 16:36:00
11:16 AM,26.6,19.4,74,29.86,4.0,East,5.8,-,0.01,Snow,Light Snow,80,2013-02-22 17:16:00
11:35 AM,28.4,21.2,74,29.85,5.0,Calm,Calm,-,0.01,Snow,Light Snow,0,2013-02-22 17:35:00
11:55 AM,28.4,21.2,74,29.85,7.0,East,3.5,-,0.02,,Overcast,80,2013-02-22 17:55:00
12:16 PM,28.4,19.4,69,29.85,10.0,ENE,4.6,-,N/A,,Overcast,70,2013-02-22 18:16:00
12:35 PM,28.4,19.4,69,29.85,10.0,Calm,Calm,-,N/A,,Overcast,0,2013-02-22 18:35:00
12:55 PM,28.4,19.4,69,29.85,10.0,Calm,Calm,-,N/A,,Overcast,0,2013-02-22 18:55:00
1:16 PM,28.4,19.4,69,29.85,10.0,Calm,Calm,-,N/A,,Overcast,0,2013-02-22 19:16:00
1:35 PM,28.4,19.4,69,29.84,10.0,Calm,Calm,-,N/A,,Overcast,0,2013-02-22 19:35:00
1:55 PM,28.4,19.4,69,29.84,10.0,Calm,Calm,-,N/A,,Overcast,0,2013-02-22 19:55:00
2:16 PM,28.4,19.4,69,29.84,10.0,Calm,Calm,-,N/A,Snow,Light Snow,0,2013-02-22 20:16:00
2:35 PM,28.4,19.4,69,29.83,10.0,Calm,Calm,-,N/A,Snow,Light Snow,0,2013-02-22 20:35:00
2:55 PM,30.2,19.4,64,29.83,10.0,North,4.6,-,N/A,,Overcast,10,2013-02-22 20:55:00
3:16 PM,28.4,19.4,69,29.83,10.0,Calm,Calm,-,N/A,,Overcast,0,2013-02-22 21:16:00
3:35 PM,28.4,19.4,69,29.83,10.0,North,3.5,-,N/A,,Overcast,350,2013-02-22 21:35:00
3:55 PM,28.4,19.4,69,29.83,10.0,NNW,6.9,-,N/A,,Overcast,340,2013-02-22 21:55:00
4:16 PM,28.4,19.4,69,29.83,10.0,North,4.6,-,N/A,,Overcast,350,2013-02-22 22:16:00
4:35 PM,28.4,19.4,69,29.84,10.0,NNW,6.9,-,N/A,,Overcast,340,2013-02-22 22:35:00
4:55 PM,28.4,19.4,69,29.85,10.0,NW,4.6,-,N/A,,Overcast,320,2013-02-22 22:55:00
5:16 PM,28.4,21.2,74,29.85,10.0,NW,5.8,-,N/A,,Overcast,310,2013-02-22 23:16:00
5:35 PM,28.4,19.4,69,29.86,10.0,WNW,5.8,-,N/A,,Overcast,290,2013-02-22 23:35:00
5:55 PM,28.4,21.2,74,29.86,10.0,WNW,5.8,-,N/A,,Overcast,300,2013-02-22 23:55:00
6:16 PM,28.4,21.2,74,29.87,10.0,WNW,6.9,-,N/A,,Overcast,290,2013-02-23 00:16:00
6:35 PM,28.4,21.2,74,29.87,10.0,NW,6.9,-,N/A,,Overcast,310,2013-02-23 00:35:00
6:55 PM,28.4,21.2,74,29.87,10.0,WNW,4.6,-,N/A,,Overcast,290,2013-02-23 00:55:00
7:16 PM,28.4,21.2,74,29.87,10.0,WNW,6.9,-,N/A,,Overcast,300,2013-02-23 01:16:00
7:35 PM,28.4,21.2,74,29.87,10.0,WNW,6.9,-,N/A,,Overcast,300,2013-02-23 01:35:00
7:55 PM,28.4,21.2,74,29.87,10.0,WNW,6.9,-,N/A,,Overcast,290,2013-02-23 01:55:00
8:16 PM,28.4,19.4,69,29.88,10.0,WNW,5.8,-,N/A,,Overcast,290,2013-02-23 02:16:00
8:35 PM,26.6,19.4,74,29.88,10.0,WNW,8.1,-,N/A,,Overcast,290,2013-02-23 02:35:00
8:55 PM,26.6,19.4,74,29.87,10.0,WNW,4.6,-,N/A,,Overcast,300,2013-02-23 02:55:00
9:16 PM,26.6,19.4,74,29.87,10.0,WNW,5.8,-,N/A,,Overcast,290,2013-02-23 03:16:00
9:35 PM,26.6,19.4,74,29.87,10.0,WNW,5.8,-,N/A,,Overcast,300,2013-02-23 03:35:00
9:55 PM,26.6,19.4,74,29.87,10.0,WNW,5.8,-,N/A,,Overcast,300,2013-02-23 03:55:00
10:16 PM,26.6,19.4,74,29.87,10.0,WNW,6.9,-,N/A,Snow,Light Snow,290,2013-02-23 04:16:00
10:35 PM,26.6,19.4,74,29.87,10.0,WNW,4.6,-,N/A,Snow,Light Snow,290,2013-02-23 04:35:00
10:55 PM,26.6,21.2,80,29.87,10.0,WNW,4.6,-,N/A,,Overcast,290,2013-02-23 04:55:00
11:16 PM,26.6,21.2,80,29.87,10.0,WNW,4.6,-,N/A,,Overcast,290,2013-02-23 05:16:00
11:35 PM,26.6,21.2,80,29.87,10.0,WNW,4.6,-,N/A,,Overcast,290,2013-02-23 05:35:00
11:56 PM,24.8,19.4,80,29.86,10.0,WNW,5.8,-,N/A,,Overcast,290,2013-02-23 05:56:00